Wetbulb
46.83 43.15 39.82 41.94 42.41 43.49 43.25 41.61 41.20 44.47 46.59 44.44 44.11 45.20 55.42 57.68 54.86 57.19 57.63 53.40 53.68 54.72 56.95 57.69 58.21 58.81 58.51 58.22 57.89 58.09 58.88 59.96 61.94 62.02 60.70 59.27 57.44 56.11 53.68 54.00 54.42 53.90 52.89 52.21
44.57 41.11 46.02 46.61 45.93 44.32 43.52 41.89 41.98 44.61 46.91 44.84 43.68 44.76 48.63 55.01 55.93 56.67 56.56 54.51 53.76 53.59 54.28 56.62 56.63 57.32 57.66 58.06 60.62 59.63 58.79 57.69 57.43 57.59 57.12 56.99 56.45 56.06 53.25 52.30 52.35 51.15 50.77 49.80
42.44 45.70 49.51 48.20 46.31 45.51 43.13 41.57 41.94 42.68 45.96 44.35 42.73 42.02 43.35 46.82 49.54 51.16 53.08 55.67 54.49 53.77 54.22 55.72 56.38 57.64 59.89 59.80 58.05 56.48 55.71 55.16 54.56 54.16 53.85 53.86 54.26 52.18 50.53 50.33 48.89 48.37 49.03 48.80
43.99 48.18 47.99 46.37 46.12 46.31 41.22 46.40 46.48 45.65 41.98 38.25 42.32 35.93 40.65 43.74 45.59 48.38 52.23 53.35 54.66 54.13 55.00 55.73 58.73 59.69 58.69 57.48 56.86 55.73 54.81 53.53 53.07 52.66 51.97 52.11 51.75 48.36 47.80 46.88 46.40 46.09 47.21 47.06
44.17 45.38 45.73 44.96 45.61 47.00 44.65 47.07 46.39 45.33 40.37 37.58 40.06 37.14 40.50 42.01 43.33 44.26 46.92 50.22 50.45 52.76 54.37 58.68 59.00 57.79 56.82 55.79 54.31 52.89 52.03 51.74 51.68 51.47 51.51 51.67 46.36 45.53 45.23 44.06 43.33 43.77 44.57 45.58
45.54 48.08 47.36 46.29 48.27 47.96 48.59 45.66 42.61 40.06 37.84 33.44 36.52 36.87 37.79 39.98 43.31 46.21 52.61 55.95 55.52 56.44 58.53 58.07 57.67 56.14 53.85 52.83 51.40 50.41 49.62 49.18 49.75 49.45 50.85 46.72 43.17 42.39 42.03 41.91 41.59 42.41 43.07 44.74
43.81 44.50 46.64 48.78 44.98 45.59 43.86 39.28 33.00 32.60 31.81 32.48 38.52 37.38 38.09 45.53 47.96 50.20 53.77 55.63 56.91 57.46 57.00 56.56 54.06 51.45 50.60 49.46 49.11 48.86 47.87 47.40 48.77 49.45 45.89 43.65 42.72 42.33 41.44 40.89 41.11 41.57 42.86 43.80
38.34 37.65 44.59 47.80 45.50 42.79 41.37 40.25 33.60 29.35 28.93 33.37 39.52 35.69 41.04 49.27 51.24 54.27 54.84 55.22 56.25 55.24 53.47 51.39 50.26 49.64 48.83 48.63 47.77 47.95 46.87 47.92 48.40 44.41 42.73 42.78 42.50 41.81 41.49 41.34 41.46 41.64 41.51 44.24
37.62 39.76 47.41 48.92 48.09 46.61 41.78 38.74 41.42 35.72 34.43 33.02 35.30 40.12 46.59 49.56 49.60 52.30 52.36 52.25 51.41 50.41 50.08 49.21 49.25 48.81 47.61 46.06 46.56 47.38 46.76 46.13 43.13 42.78 42.99 41.93 41.83 41.57 41.01 41.38 41.42 41.74 43.25 46.92
43.10 38.38 45.46 47.70 46.59 45.11 43.73 44.72 38.14 35.34 30.41 28.77 33.82 36.44 38.83 44.72 46.94 49.06 50.36 49.60 49.14 48.55 47.77 47.45 47.20 47.00 45.92 46.25 45.82 45.32 44.28 43.06 43.12 42.38 41.93 41.96 41.44 41.86 41.54 41.35 41.56 42.99 44.88 46.26
42.89 40.97 41.62 45.06 42.95 40.44 41.39 39.06 38.25 37.50 35.58 30.20 28.34 33.71 45.58 45.71 47.59 47.45 49.15 48.64 47.87 46.86 46.13 46.14 46.15 46.88 45.94 45.88 45.35 44.93 43.28 42.31 41.63 41.85 41.38 40.90 41.20 41.65 41.87 41.87 42.76 43.38 43.99 45.75
43.91 40.61 37.54 41.15 46.59 48.18 45.20 42.49 39.86 34.56 34.32 35.04 34.47 35.33 49.56 48.48 49.10 50.14 49.69 48.76 47.05 46.56 45.89 45.94 46.00 46.32 45.63 44.99 43.52 42.29 42.25 42.15 41.50 41.12 40.74 40.49 40.71 40.90 41.10 42.07 43.11 44.54 43.93 46.20
46.55 38.80 35.08 38.05 42.39 45.64 44.35 44.84 42.44 40.13 38.28 35.74 32.14 34.99 48.28 49.58 50.01 51.41 49.39 47.35 46.83 46.02 45.43 45.93 46.03 45.14 44.71 43.36 42.39 41.93 41.32 41.47 41.40 41.52 41.00 40.89 40.71 40.74 41.27 41.90 42.83 44.12 44.27 45.16
49.78 40.85 38.17 35.58 38.88 42.92 41.94 43.95 43.90 40.00 35.60 36.30 37.53 38.80 45.36 46.95 49.91 49.53 48.26 47.89 47.01 46.84 46.22 45.61 45.69 44.90 43.99 43.60 43.03 42.35 41.49 41.38 41.03 41.27 40.89 40.64 40.95 41.12 41.27 42.31 42.89 43.17 43.27 42.03
43.74 39.36 41.59 43.80 45.88 45.77 44.46 45.29 43.34 40.88 40.11 38.17 40.57 41.17 43.16 47.65 48.15 50.84 49.42 48.89 47.36 46.97 47.25 45.55 43.86 42.47 42.58 42.03 41.27 41.58 41.14 41.26 40.63 40.87 40.72 41.00 41.47 41.57 41.97 41.95 41.83 41.96 39.83 40.07
42.36 40.27 42.19 42.53 45.74 45.19 44.40 45.88 44.38 44.27 42.67 41.82 41.93 41.43 44.97 47.75 50.81 51.26 49.51 48.21 47.75 47.85 46.01 44.78 44.08 43.04 42.12 42.11 40.64 41.07 40.70 40.49 40.58 40.56 40.95 41.25 41.70 41.74 41.38 42.13 40.92 38.55 37.74 38.23
42.57 41.03 37.87 35.79 42.39 40.54 35.41 41.61 43.18 42.45 43.10 42.08 39.47 43.38 47.12 47.39 49.65 51.09 49.95 50.65 49.04 46.43 45.41 44.92 43.95 43.04 42.39 42.11 40.81 39.83 40.01 40.24 40.30 40.35 40.98 41.39 42.04 42.11 42.17 40.03 38.05 36.51 36.10 36.30
41.95 40.54 38.66 36.43 37.03 30.71 39.78 45.54 45.55 43.95 45.17 45.52 46.24 47.74 47.93 47.42 46.51 48.48 51.55 49.42 46.43 46.19 46.12 45.47 44.54 42.75 42.21 41.51 40.47 39.88 40.49 39.98 40.07 39.88 40.24 40.87 41.74 42.36 40.75 37.70 35.74 35.28 35.34 35.51
44.70 40.69 37.13 35.08 33.81 38.56 42.85 44.39 43.95 41.76 41.57 46.64 46.57 48.69 48.34 47.74 47.24 45.33 47.31 48.23 46.94 46.09 45.51 43.57 43.46 43.33 42.34 40.97 40.74 40.37 39.55 39.53 39.50 40.13 40.39 41.53 41.85 41.84 39.99 36.43 34.66 34.83 34.69 35.39
44.63 43.38 40.05 35.98 33.24 30.84 39.50 47.46 49.54 45.46 37.00 48.53 48.35 48.43 47.07 47.17 43.49 42.98 44.52 45.33 44.22 44.05 43.64 43.18 43.92 43.24 41.30 40.81 40.75 39.34 39.37 38.86 39.26 40.66 41.66 42.41 41.75 40.84 39.01 35.33 35.07 34.90 34.20 35.28
37.37 38.21 36.39 34.21 33.42 37.82 43.94 49.56 49.30 37.24 37.81 48.76 48.05 49.03 47.87 46.16 46.21 43.99 44.60 44.25 44.32 45.08 45.00 45.16 43.87 42.20 41.82 41.92 40.16 38.93 38.23 38.36 40.26 41.76 41.93 41.83 40.34 39.29 38.27 35.01 34.59 35.21 35.33 35.66
36.41 35.54 35.30 35.76 32.35 33.28 48.93 49.35 42.99 44.49 46.51 49.60 49.08 48.34 46.90 44.38 44.19 44.22 44.31 43.70 44.11 44.10 45.09 44.66 41.87 40.97 41.59 40.94 39.93 38.53 38.14 40.08 41.34 40.87 39.51 39.20 39.97 40.55 38.66 34.99 33.93 34.90 34.85 34.58
35.47 39.57 38.20 39.73 38.55 44.19 48.72 47.75 48.93 50.04 49.57 48.87 47.85 47.33 46.12 44.73 44.16 44.10 43.49 43.39 43.80 45.40 44.76 43.85 41.15 39.78 39.77 40.37 40.07 38.43 39.31 40.93 40.80 39.97 38.14 37.75 39.68 39.86 40.08 35.45 33.46 33.80 33.83 33.75
42.77 45.38 40.98 41.76 44.27 46.40 49.34 50.44 51.30 50.74 49.51 49.82 48.81 48.28 47.79 45.18 44.79 44.07 43.60 43.84 45.37 45.09 43.95 43.07 42.27 41.40 39.99 40.80 41.54 40.16 40.95 41.38 38.25 37.72 37.29 37.03 37.94 38.48 38.36 37.27 35.35 33.65 33.17 33.47
42.90 44.43 41.69 41.78 44.83 47.97 50.00 50.37 50.86 50.08 50.25 49.30 49.17 48.03 46.85 46.09 45.27 44.94 44.33 44.75 45.11 44.79 44.34 43.31 41.59 39.93 40.18 41.07 41.18 41.07 41.71 39.82 36.91 36.51 36.57 36.04 36.95 36.49 36.22 35.80 35.11 34.94 33.91 34.82
43.38 43.24 40.32 40.24 45.79 45.94 47.67 50.24 51.56 49.68 49.18 49.09 48.17 47.20 47.34 47.26 45.39 46.56 45.83 45.76 45.10 44.28 43.23 42.49 41.70 41.43 40.99 41.75 41.22 41.44 41.92 41.37 37.82 36.14 36.08 35.08 35.80 34.64 35.35 33.93 34.77 37.59 37.47 37.72
MSLP
1009.37 1010.31 1010.70 1010.88 1010.95 1010.75 1010.76 1010.51 1010.26 1009.13 1008.41 1008.70 1008.49 1008.52 1008.66 1008.85 1009.69 1009.90 1010.08 1010.45 1010.41 1010.02 1010.13 1010.70 1010.92 1011.32 1012.52 1013.16 1013.86 1014.40 1014.86 1015.45 1015.75 1016.34 1016.91 1017.36 1017.98 1018.23 1018.45 1018.43 1018.41 1018.48 1018.46 1018.33
1010.08 1010.15 1009.96 1010.19 1010.45 1010.53 1010.46 1010.40 1009.93 1008.95 1008.44 1008.99 1008.74 1008.63 1008.51 1008.84 1008.77 1008.67 1009.18 1009.86 1010.06 1010.49 1010.50 1010.95 1011.85 1012.78 1013.42 1014.15 1014.87 1015.38 1015.54 1016.08 1016.59 1016.88 1017.46 1017.87 1018.20 1018.52 1018.75 1018.86 1019.03 1018.81 1018.68 1018.40
1009.88 1009.42 1009.21 1009.67 1009.74 1009.98 1009.89 1010.15 1009.95 1009.82 1009.17 1009.38 1009.57 1009.55 1009.11 1009.23 1009.31 1009.44 1009.75 1009.76 1010.22 1010.26 1010.42 1011.56 1012.95 1013.74 1014.36 1015.17 1015.75 1016.11 1016.57 1016.89 1017.35 1017.73 1017.90 1018.16 1018.34 1018.62 1019.10 1019.29 1019.33 1019.24 1018.86 1018.58
1009.51 1008.80 1008.96 1009.17 1009.30 1009.43 1009.70 1009.09 1009.57 1009.89 1010.39 1010.51 1010.47 1010.97 1009.97 1009.65 1009.87 1009.70 1009.34 1009.36 1009.44 1009.86 1010.78 1012.32 1013.24 1014.31 1015.01 1016.05 1016.51 1016.84 1017.16 1017.72 1018.28 1018.59 1018.83 1019.13 1019.93 1019.96 1020.24 1020.10 1019.80 1019.50 1018.98 1018.66
1009.05 1008.67 1008.58 1008.64 1008.49 1008.72 1008.68 1008.92 1009.67 1010.34 1011.14 1011.56 1011.66 1011.83 1010.71 1010.30 1009.96 1009.84 1010.05 1010.25 1009.82 1010.16 1011.14 1012.52 1013.70 1014.87 1015.82 1016.61 1017.30 1017.79 1018.13 1018.64 1019.11 1019.28 1019.67 1020.36 1020.75 1020.90 1020.73 1020.49 1020.11 1019.68 1019.37 1018.95
1008.80 1008.42 1008.25 1007.96 1007.84 1007.99 1008.49 1009.38 1010.71 1011.78 1012.39 1013.00 1012.72 1012.81 1012.46 1011.94 1011.70 1011.11 1011.51 1011.76 1010.95 1011.22 1012.33 1013.26 1014.44 1015.39 1016.71 1017.57 1018.17 1018.73 1018.95 1019.37 1019.62 1019.93 1020.47 1020.93 1021.05 1021.13 1020.77 1020.70 1020.65 1020.16 1019.61 1018.94
1009.09 1008.40 1007.97 1007.72 1007.90 1008.02 1008.96 1010.53 1012.19 1013.38 1014.07 1014.14 1013.45 1013.69 1013.97 1013.28 1012.85 1012.71 1013.07 1013.22 1012.93 1013.09 1013.86 1015.02 1015.63 1016.51 1017.80 1019.08 1019.89 1019.27 1019.92 1020.47 1020.57 1020.93 1021.15 1021.30 1021.10 1020.97 1021.30 1021.47 1021.03 1020.51 1019.96 1019.03
1009.61 1008.61 1007.66 1007.32 1007.44 1008.08 1009.23 1010.46 1012.32 1013.80 1015.11 1014.54 1013.60 1013.89 1014.27 1013.97 1013.60 1013.62 1014.15 1014.79 1015.50 1015.70 1016.30 1016.71 1017.62 1018.42 1019.37 1019.34 1019.62 1021.80 1020.79 1021.14 1021.34 1021.43 1021.56 1021.21 1021.25 1021.48 1021.34 1021.11 1020.67 1020.33 1019.80 1018.85
1009.34 1008.71 1007.51 1007.07 1007.12 1007.93 1009.27 1010.66 1011.43 1013.59 1015.29 1015.26 1014.58 1014.61 1014.05 1014.06 1014.19 1014.53 1015.43 1016.23 1017.04 1017.81 1018.15 1018.72 1019.54 1019.90 1019.95 1021.99 1020.72 1022.18 1022.10 1022.14 1021.91 1021.61 1021.63 1021.77 1021.79 1021.55 1021.64 1021.29 1020.73 1019.91 1019.09 1018.56
1008.62 1008.82 1007.84 1007.14 1007.12 1007.94 1008.43 1009.95 1011.86 1013.79 1015.72 1016.37 1015.51 1015.36 1015.42 1015.08 1014.84 1015.32 1016.11 1017.03 1018.04 1018.82 1019.31 1019.78 1020.50 1020.99 1021.04 1022.98 1023.14 1021.77 1022.79 1022.59 1022.36 1022.00 1021.93 1021.88 1021.88 1021.73 1021.57 1021.21 1020.55 1019.75 1019.00 1018.54
1008.62 1008.99 1008.57 1007.92 1007.94 1008.17 1009.23 1010.44 1012.23 1014.11 1015.66 1016.59 1016.55 1016.14 1015.34 1015.45 1015.22 1015.86 1017.02 1017.52 1018.14 1019.00 1019.74 1020.20 1020.91 1021.44 1021.78 1022.67 1023.73 1023.11 1023.30 1022.98 1022.51 1021.97 1022.24 1022.28 1021.87 1021.55 1021.50 1020.95 1020.20 1019.67 1019.00 1018.62
1008.36 1009.21 1009.58 1009.26 1008.86 1008.71 1009.44 1010.97 1012.26 1014.03 1016.19 1016.76 1016.67 1015.85 1015.01 1015.29 1015.28 1015.54 1016.72 1017.50 1018.26 1018.66 1019.19 1019.66 1019.95 1021.07 1020.62 1021.88 1022.88 1023.50 1023.66 1023.62 1022.49 1022.13 1022.46 1022.45 1021.95 1021.49 1021.15 1020.53 1019.93 1019.42 1018.97 1018.55
1008.29 1009.82 1010.51 1010.62 1010.14 1009.49 1010.06 1011.40 1012.42 1013.56 1015.04 1016.24 1016.70 1015.82 1015.25 1015.50 1015.92 1016.23 1016.55 1017.71 1018.49 1018.99 1019.62 1020.18 1020.51 1019.81 1021.11 1021.11 1021.75 1023.17 1023.78 1023.89 1022.95 1022.19 1022.39 1022.41 1021.90 1021.42 1020.82 1020.31 1019.85 1019.36 1018.91 1018.49
1008.16 1010.27 1010.76 1010.67 1010.23 1010.28 1010.93 1011.52 1012.59 1013.48 1014.84 1015.60 1015.60 1015.26 1015.36 1015.52 1015.83 1016.18 1016.71 1017.09 1018.05 1019.02 1019.80 1020.30 1020.92 1021.29 1021.17 1021.41 1022.49 1023.42 1023.69 1023.94 1023.10 1022.33 1022.42 1022.22 1021.58 1021.38 1020.92 1020.41 1019.81 1019.34 1018.90 1018.47
1008.99 1010.81 1011.19 1011.36 1010.97 1010.53 1010.77 1011.31 1012.37 1013.46 1013.66 1014.14 1014.21 1014.51 1013.94 1014.49 1015.09 1015.56 1016.62 1017.62 1018.33 1019.31 1020.17 1020.78 1021.31 1021.68 1021.44 1022.60 1023.37 1023.34 1023.65 1023.71 1022.80 1022.15 1022.26 1022.02 1021.74 1021.29 1020.92 1020.31 1019.70 1019.25 1018.78 1018.36
1010.38 1011.93 1012.06 1012.46 1012.35 1011.93 1011.69 1011.39 1012.20 1012.98 1012.97 1013.38 1013.82 1013.71 1013.39 1013.95 1014.89 1015.94 1016.91 1017.69 1018.40 1019.26 1020.14 1020.88 1021.31 1021.19 1022.16 1022.79 1023.39 1023.38 1023.53 1023.57 1022.44 1022.36 1022.14 1021.80 1021.71 1021.30 1020.89 1020.16 1019.72 1019.26 1018.87 1018.40
1011.09 1012.08 1013.08 1013.49 1012.89 1012.84 1012.30 1011.72 1012.11 1012.22 1012.64 1013.14 1013.54 1013.20 1013.68 1014.36 1015.20 1015.92 1016.61 1017.42 1018.43 1019.34 1020.27 1020.91 1021.44 1021.88 1022.36 1023.11 1023.51 1023.53 1023.52 1022.93 1022.47 1022.28 1022.08 1021.89 1021.60 1021.25 1020.75 1020.26 1019.87 1019.60 1019.23 1018.74
1011.35 1012.52 1013.47 1014.37 1013.78 1013.22 1011.95 1011.26 1011.45 1012.34 1013.08 1013.28 1013.54 1013.94 1013.88 1014.53 1015.89 1016.08 1016.58 1017.34 1018.43 1019.38 1019.99 1020.59 1021.25 1022.34 1022.83 1023.37 1023.81 1023.67 1023.24 1022.95 1022.68 1022.62 1022.05 1021.63 1021.39 1021.01 1020.66 1020.45 1020.24 1019.92 1019.59 1019.26
1011.14 1012.63 1014.37 1014.86 1014.67 1013.61 1012.04 1011.43 1011.64 1011.92 1013.13 1013.53 1014.03 1014.57 1014.91 1015.60 1016.08 1017.34 1017.52 1017.74 1018.48 1019.40 1020.36 1021.09 1021.57 1022.79 1022.97 1023.53 1023.54 1023.32 1023.08 1023.06 1022.85 1022.48 1021.98 1021.62 1021.07 1020.80 1020.70 1020.71 1020.60 1020.30 1019.98 1019.57
1012.14 1012.60 1013.84 1015.02 1014.81 1013.89 1012.21 1011.28 1011.17 1011.85 1013.14 1013.50 1013.88 1014.64 1015.41 1015.99 1017.03 1017.89 1018.45 1018.65 1019.42 1020.06 1020.76 1021.71 1021.96 1022.83 1022.98 1023.31 1023.37 1023.38 1023.10 1023.05 1022.85 1022.31 1022.11 1021.38 1020.78 1020.57 1020.73 1020.72 1020.65 1020.49 1020.23 1019.98
1013.25 1013.98 1014.46 1014.78 1014.30 1013.19 1011.79 1011.26 1011.47 1012.62 1013.31 1013.29 1013.90 1014.62 1015.64 1016.55 1016.99 1017.67 1018.70 1019.52 1019.88 1020.32 1021.13 1021.90 1021.85 1022.93 1022.93 1022.95 1023.10 1023.18 1023.30 1023.14 1022.53 1022.34 1021.98 1021.12 1020.49 1020.41 1020.51 1020.62 1020.70 1020.58 1020.37 1020.07
1013.30 1014.13 1014.71 1014.66 1014.14 1012.97 1011.33 1011.57 1011.97 1012.36 1012.93 1013.35 1014.02 1014.68 1015.75 1016.65 1017.58 1018.32 1019.20 1019.98 1020.50 1020.86 1021.35 1021.51 1022.08 1022.92 1022.98 1022.98 1023.20 1023.36 1023.23 1022.78 1022.41 1022.37 1021.69 1021.16 1020.48 1020.32 1020.39 1020.69 1020.75 1020.70 1020.56 1020.52
1013.51 1013.53 1013.80 1013.81 1012.92 1011.97 1011.45 1011.52 1011.70 1012.20 1012.98 1013.74 1014.25 1014.92 1015.82 1016.94 1018.00 1018.73 1019.53 1020.31 1020.73 1020.94 1021.46 1021.83 1022.52 1022.96 1023.01 1023.17 1023.07 1023.17 1022.91 1022.69 1022.39 1022.14 1021.71 1021.32 1020.59 1020.33 1020.33 1020.67 1020.76 1020.77 1020.66 1020.59
1013.59 1013.54 1013.66 1013.47 1012.81 1012.32 1011.99 1012.00 1012.10 1012.55 1013.19 1013.90 1014.49 1015.35 1016.10 1016.95 1018.06 1018.92 1019.58 1020.27 1020.60 1021.03 1021.65 1022.09 1022.46 1022.77 1022.96 1023.10 1023.09 1022.87 1022.89 1022.53 1022.41 1021.96 1021.86 1021.39 1020.90 1020.56 1020.39 1020.55 1020.52 1020.55 1020.45 1020.43
1014.00 1013.86 1013.86 1013.67 1013.28 1012.99 1012.74 1012.68 1012.82 1013.39 1013.78 1014.35 1015.26 1015.80 1016.35 1017.10 1017.97 1018.63 1019.42 1020.05 1020.34 1020.63 1021.11 1021.58 1022.16 1022.72 1023.01 1022.96 1022.90 1022.73 1022.75 1022.52 1022.34 1022.13 1021.97 1021.48 1021.14 1020.81 1020.50 1020.40 1020.25 1020.15 1019.91 1019.98
1014.12 1013.91 1013.90 1013.60 1013.48 1013.57 1013.40 1013.21 1013.52 1013.84 1014.38 1014.88 1015.36 1016.34 1016.89 1017.06 1017.69 1018.30 1019.07 1019.66 1020.28 1020.70 1020.94 1021.39 1021.95 1022.48 1022.78 1022.89 1023.04 1022.70 1022.47 1022.30 1022.31 1022.35 1021.97 1021.69 1021.42 1020.96 1020.59 1020.47 1020.04 1019.59 1019.42 1019.43
Wind_Speed
2 4 5 8 6 2 1 1 3 7 5 2 8 8 17 20 8 13 12 10 15 19 15 15 14 11 7 6 7 5 8 6 5 4 4 4 4 3 4 4 7 6 5 5
5 5 9 3 4 4 3 2 9 9 5 6 6 11 7 15 21 21 18 13 16 11 9 11 5 5 6 7 9 10 10 9 7 4 3 3 3 3 4 4 5 6 6 6
7 7 4 4 3 2 4 3 4 7 5 2 2 8 2 2 4 1 7 9 6 15 18 10 7 7 9 11 10 11 11 11 9 7 4 4 4 3 3 3 2 4 7 6
5 6 6 1 5 6 6 8 7 3 3 1 3 5 5 2 6 8 16 15 16 14 11 8 12 11 13 12 11 12 12 12 10 7 7 10 4 3 3 3 4 5 6 7
8 1 2 1 6 5 11 7 6 3 4 3 5 5 9 4 6 6 4 9 11 6 12 14 15 16 14 13 12 11 12 12 10 11 10 6 4 2 2 3 6 6 7 7
8 1 1 5 5 3 4 5 8 5 4 4 2 5 7 5 7 8 6 7 9 12 15 17 17 17 15 12 12 10 12 11 10 11 9 6 6 3 4 6 5 5 4 6
7 6 3 4 5 3 6 8 3 4 6 5 3 4 2 9 9 6 5 8 10 14 16 15 17 16 15 12 10 10 10 10 10 8 6 5 5 7 6 5 4 6 6 5
6 8 5 4 7 6 4 9 8 5 4 5 3 1 5 6 5 11 10 9 11 14 13 16 15 14 13 13 15 8 9 9 6 5 4 6 7 2 2 3 4 4 4 6
6 7 3 4 3 8 3 3 5 8 3 3 3 4 4 8 8 9 12 12 13 12 14 16 15 15 14 8 12 6 6 4 5 5 5 5 3 5 5 7 5 4 5 7
7 3 5 5 1 2 6 6 4 4 4 4 4 3 4 6 6 3 11 12 12 12 13 14 13 12 11 9 7 9 5 4 4 4 4 3 4 4 4 5 6 7 7 8
6 5 5 2 1 3 2 2 7 7 5 6 1 5 6 5 4 1 7 9 12 12 11 12 11 10 10 8 5 6 2 2 3 5 4 4 5 5 6 6 6 6 6 8
6 6 4 7 5 3 4 4 5 7 3 2 4 6 6 7 5 10 12 12 12 13 14 13 13 9 9 8 4 4 5 5 3 2 3 5 6 5 6 6 7 7 7 8
8 1 1 7 7 5 7 4 4 6 4 5 7 7 4 4 3 7 16 12 12 12 10 8 8 9 7 7 6 2 4 6 4 4 5 6 6 6 7 7 7 7 7 9
8 4 7 10 7 5 5 4 2 5 4 5 6 3 6 8 8 7 11 14 13 12 10 7 4 5 6 7 4 3 4 6 5 4 5 6 7 7 7 7 7 6 7 7
5 5 4 4 3 4 2 3 3 5 4 6 7 9 6 14 13 15 9 8 12 11 7 6 5 4 7 4 3 3 4 5 3 5 5 7 7 7 7 7 7 6 7 6
3 2 3 3 3 3 3 3 5 7 2 5 2 5 4 2 7 9 11 12 12 9 9 8 8 8 5 5 4 3 4 5 4 5 6 6 6 6 6 6 7 7 7 7
4 6 4 2 2 2 3 6 6 3 1 2 5 9 5 4 6 10 12 13 12 11 10 8 5 5 6 3 4 4 4 4 4 5 5 6 6 6 6 6 7 8 8 6
5 5 4 3 3 1 7 3 3 9 2 6 4 4 3 5 4 4 7 10 13 13 12 9 7 5 3 2 4 5 4 4 5 5 6 6 6 6 6 7 7 7 5 7
5 6 4 5 4 4 5 3 6 5 1 2 2 1 4 6 5 7 7 5 8 8 8 6 7 3 3 4 5 1 3 3 4 6 7 7 5 5 4 6 7 5 5 6
6 5 6 4 6 8 8 4 4 4 3 4 3 6 7 3 3 4 5 10 11 10 8 7 6 3 4 4 3 1 4 5 5 6 7 7 5 4 2 3 5 3 3 4
3 3 6 3 3 6 6 5 4 5 9 6 5 6 7 5 3 7 10 9 10 11 11 8 7 4 5 4 2 3 3 5 6 6 7 6 5 3 1 2 2 4 5 6
6 6 4 3 2 7 7 4 9 8 1 5 3 4 5 9 11 11 10 10 9 9 8 8 6 4 3 3 3 1 4 6 6 6 6 6 6 3 2 1 2 4 5 6
2 6 5 8 8 4 1 4 2 4 6 4 4 4 10 14 9 12 10 9 6 7 6 4 6 5 3 2 1 1 4 5 5 5 7 6 6 4 1 2 1 0 3 3
1 2 3 3 2 1 3 3 4 3 4 4 4 10 11 13 13 11 9 8 8 6 5 4 5 3 1 2 4 3 6 4 4 5 7 6 6 6 3 2 3 2 2 2
3 2 1 1 2 4 5 2 5 4 6 8 7 6 11 14 11 12 9 9 10 10 9 7 6 4 4 3 4 5 5 3 5 5 6 6 4 5 4 3 4 4 5 4
2 4 3 5 3 2 5 2 3 7 6 8 9 7 6 10 13 10 10 9 8 8 6 5 5 4 4 3 5 5 4 2 4 5 5 5 5 5 3 3 5 7 9 7
Wind_Direction
352 81 226 228 199 163 112 183 274 268 257 245 253 260 192 195 195 214 209 201 205 203 198 200 203 194 122 105 98 103 99 59 70 68 95 72 78 77 48 44 46 41 32 23
17 246 234 217 185 216 215 307 295 290 272 157 294 278 206 184 204 204 202 206 212 204 209 205 184 97 80 86 82 76 78 72 62 65 67 89 107 85 82 52 38 26 16 357
174 231 108 174 261 234 250 196 241 233 342 131 19 331 58 188 286 120 287 249 236 211 206 179 116 101 94 89 92 88 80 75 65 54 55 52 50 40 21 18 12 352 352 343
234 271 235 268 263 163 267 212 211 158 95 216 53 275 307 109 208 218 225 220 224 205 209 124 122 109 107 99 91 83 78 74 63 51 61 54 18 38 5 342 334 330 333 330
239 198 77 279 239 157 226 156 178 124 107 78 347 73 273 349 326 294 330 313 268 227 143 132 123 113 104 100 95 89 85 75 66 63 63 48 64 52 337 328 346 347 330 308
233 262 220 224 283 245 131 90 49 55 92 52 244 120 285 326 296 312 0 353 30 88 103 112 110 104 95 90 85 78 77 70 65 65 49 57 63 16 18 5 345 324 298 301
323 270 247 199 284 10 72 60 358 354 12 212 159 94 262 321 329 8 26 41 78 97 105 101 101 99 91 77 64 86 71 65 60 51 50 57 54 34 15 325 313 324 317 309
188 314 166 173 181 204 198 149 152 206 187 242 285 279 322 317 11 60 56 59 63 73 78 88 86 82 80 94 83 15 64 64 44 65 61 41 38 10 312 299 305 293 282 301
153 262 266 219 190 141 197 173 185 102 34 74 263 115 266 354 32 69 67 61 60 62 70 73 66 61 67 53 80 57 46 47 59 57 45 33 9 9 334 317 297 285 297 325
211 306 218 278 113 117 163 156 90 20 146 216 285 98 223 329 331 48 97 94 86 76 77 76 70 71 77 43 12 70 26 42 42 53 41 30 354 326 318 309 323 322 323 323
131 129 270 37 359 177 5 52 50 106 107 157 180 265 216 232 231 97 107 108 113 103 97 96 91 94 80 63 6 22 8 44 58 44 13 342 331 328 313 305 306 307 313 320
185 154 229 227 335 12 104 112 126 115 203 107 137 269 175 220 251 148 137 125 122 125 133 137 136 133 114 119 68 19 354 340 12 17 347 322 313 315 311 317 317 313 308 315
176 98 70 5 345 355 74 50 91 87 73 188 131 257 174 200 261 159 140 138 146 149 139 125 121 122 141 118 105 46 299 285 317 3 343 318 323 326 330 326 317 315 314 315
85 110 155 188 194 153 93 117 177 110 112 179 216 204 194 197 184 172 168 165 156 151 150 152 126 100 111 88 97 208 255 276 305 358 340 328 338 334 319 307 313 324 314 312
90 106 99 51 49 66 87 102 169 220 189 157 242 193 228 202 190 191 164 147 147 153 151 131 135 148 91 97 199 211 251 277 321 4 347 341 325 319 311 318 325 317 324 316
21 135 77 94 72 45 234 178 233 240 234 259 218 277 206 183 97 142 165 164 167 161 143 148 152 119 124 162 205 214 265 290 2 2 347 337 326 320 320 336 337 340 329 332
82 122 88 105 19 217 341 214 224 223 196 242 185 234 159 176 150 173 174 174 164 147 146 148 128 120 147 187 210 236 259 328 350 345 329 329 325 322 338 346 350 344 337 339
117 89 84 156 57 175 240 291 201 125 39 342 11 321 189 122 92 47 174 154 144 152 156 145 135 151 154 181 264 270 309 355 354 323 321 323 306 324 351 355 352 345 344 349
115 113 104 138 183 295 310 211 158 176 199 230 198 141 60 119 87 27 20 116 133 123 114 124 131 152 156 201 242 295 8 345 341 336 322 306 309 331 358 2 350 344 348 352
58 68 120 142 163 206 229 227 134 99 299 223 194 179 168 178 146 215 129 108 105 111 116 136 124 156 162 235 243 171 9 343 331 338 311 299 327 357 339 357 351 333 345 336
86 36 166 148 206 287 244 200 117 119 239 179 184 201 171 191 210 136 129 118 126 132 138 154 129 179 208 170 138 37 327 315 324 317 299 323 343 352 184 12 359 3 9 7
161 144 196 91 117 280 203 96 159 203 132 169 199 182 132 121 121 124 121 122 132 145 145 128 126 162 172 155 138 311 310 308 328 305 326 332 342 339 125 102 1 10 23 14
248 177 188 172 211 245 301 179 107 127 146 190 165 147 134 134 135 134 132 141 145 136 127 124 142 159 163 208 127 314 287 320 333 323 343 331 345 358 55 219 234 4 12 19
236 30 196 112 356 174 118 62 117 106 126 134 109 136 144 138 139 135 137 143 141 138 151 155 151 149 196 241 252 274 300 328 325 344 331 334 350 347 9 282 232 202 248 305
207 22 160 321 13 38 353 354 132 93 93 95 101 129 141 141 146 147 152 163 168 169 168 158 165 169 223 226 276 284 301 341 350 343 326 344 339 332 349 315 242 226 242 199
190 179 152 215 202 175 240 262 90 125 149 148 134 127 143 151 152 158 160 165 167 170 157 141 149 169 203 217 265 296 331 329 353 325 338 332 324 325 332 326 323 239 239 274